FW2580 Weather Reports


time (UTC)temp
C
wind
direction
speed
KPH
gust
KPH
rain 1hr
cm
rain 24hr
cm
rain mn
cm
humidity
%
barometer
mb
20260507191531 32 130 4.8 16.1 0.00 0.00 0.00 1 1011.2
20260507190031 32 82 6.4 16.1 0.00 0.00 0.00 1 1011.4
20260507184522 32 242 3.2 14.5 0.00 0.00 0.00 1 1011.5
20260507183021 31 227 3.2 11.3 0.00 0.00 0.00 1 1011.9
20260507181513 31 205 3.2 12.9 0.00 0.00 0.00 1 1012.0
20260507180013 31 286 4.8 12.9 0.00 0.00 0.00 1 1012.2
20260507174505 31 219 1.6 11.3 0.00 0.00 0.00 1 1012.3
20260507173103 30 129 3.2 9.7 0.00 0.00 0.00 1 1012.5
20260507171559 30 229 3.2 11.3 0.00 0.00 0.00 1 1012.6
20260507170052 30 207 1.6 16.1 0.00 0.00 0.00 1 1012.6
20260507164548 29 203 0.0 12.9 0.00 0.00 0.00 1 1012.6
20260507163042 29 252 3.2 11.3 0.00 0.00 0.00 1 1012.7
20260507161540 29 82 1.6 9.7 0.00 0.00 0.00 1 1013.0
20260507160134 28 108 0.0 12.9 0.00 0.00 0.00 1 1013.0
20260507154530 28 84 3.2 9.7 0.00 0.00 0.00 1 1013.1
20260507153031 27 63 4.8 12.9 0.00 0.00 0.00 2 1013.1
20260507151521 27 67 4.8 11.3 0.00 0.00 0.00 4 1013.1
20260507150016 26 49 4.8 14.5 0.00 0.00 0.00 5 1013.2
20260507144512 25 47 4.8 12.9 0.00 0.00 0.00 9 1013.2
20260507143007 23 54 6.4 12.9 0.00 0.00 0.00 12 1013.1
20260507141502 21 34 4.8 11.3 0.00 0.00 0.00 17 1013.1
20260507140111 20 355 1.6 6.4 0.00 0.00 0.00 20 1013.1
20260507134557 20 5 1.6 4.8 0.00 0.00 0.00 22 1013.0
20260507133053 18 5 1.6 3.2 0.00 0.00 0.00 23 1013.0
20260507131550 18 360 0.0 0.0 0.00 0.00 0.00 22 1012.8
20260507130049 18 360 0.0 4.8 0.00 0.00 0.00 21 1012.8
20260507124549 19 9 1.6 4.8 0.00 0.00 0.00 19 1012.6
20260507123049 19 40 4.8 16.1 0.00 0.00 0.00 19 1012.7
20260507121547 17 360 3.2 8.0 0.00 0.00 0.00 22 1012.7
20260507120046 16 355 0.0 6.4 0.00 0.00 0.00 26 1012.7
20260507114545 16 360 0.0 0.0 0.00 0.00 0.00 27 1012.9
20260507113043 16 360 0.0 3.2 0.00 0.00 0.00 27 1013.0
20260507111544 17 304 0.0 0.0 0.00 0.00 0.00 25 1013.1
20260507110036 17 360 0.0 3.2 0.00 0.00 0.00 24 1013.2
20260507104536 17 47 0.0 0.0 0.00 0.00 0.00 23 1013.3
20260507103034 17 46 0.0 1.6 0.00 0.00 0.00 23 1013.4
20260507101552 18 360 0.0 1.6 0.00 0.00 0.00 22 1013.4
20260507100034 18 41 0.0 1.6 0.00 0.00 0.00 21 1013.5
20260507094530 18 43 3.2 8.0 0.00 0.00 0.00 20 1013.4
20260507093032 18 26 3.2 6.4 0.00 0.00 0.00 20 1013.3
20260507091548 18 42 3.2 8.0 0.00 0.00 0.00 19 1013.3
20260507090025 18 37 1.6 4.8 0.00 0.00 0.00 19 1013.4
20260507084527 18 31 0.0 3.2 0.00 0.00 0.00 21 1013.6
20260507083022 18 34 0.0 0.0 0.00 0.00 0.00 22 1013.6
20260507081523 18 34 0.0 3.2 0.00 0.00 0.00 21 1013.7
20260507080018 19 36 0.0 1.6 0.00 0.00 0.00 20 1013.7
20260507074518 19 36 1.6 4.8 0.00 0.00 0.00 19 1013.7
20260507073016 19 25 0.0 3.2 0.00 0.00 0.00 20 1013.9
20260507071512 20 194 0.0 1.6 0.00 0.00 0.00 19 1013.7
20260507070012 20 194 0.0 0.0 0.00 0.00 0.00 17 1013.7
20260507064513 21 194 0.0 1.6 0.00 0.00 0.00 15 1013.7
20260507063008 21 194 0.0 3.2 0.00 0.00 0.00 14 1013.7
20260507061522 22 194 0.0 0.0 0.00 0.00 0.00 13 1013.6
20260507060010 22 194 0.0 3.2 0.00 0.00 0.00 12 1013.7
20260507054506 23 196 0.0 3.2 0.00 0.00 0.00 12 1013.7
20260507053006 23 209 1.6 4.8 0.00 0.00 0.00 11 1013.8
20260507051506 24 224 1.6 8.0 0.00 0.00 0.00 10 1013.7
20260507050009 24 218 3.2 6.4 0.00 0.00 0.00 10 1013.7
20260507044511 24 249 1.6 6.4 0.00 0.00 0.00 11 1013.6
20260507043005 24 196 0.0 1.6 0.00 0.00 0.00 11 1013.5
20260507041506 25 198 0.0 3.2 0.00 0.00 0.00 10 1013.3
20260507040004 25 198 1.6 6.4 0.00 0.00 0.00 10 1013.1
20260507034503 25 206 1.6 6.4 0.00 0.00 0.00 10 1012.9
20260507033007 25 232 1.6 4.8 0.00 0.00 0.00 9 1012.8
20260507031501 26 182 1.6 8.0 0.00 0.00 0.00 9 1012.5
20260507030001 26 225 4.8 12.9 0.00 0.00 0.00 9 1012.3
20260507024501 26 236 4.8 12.9 0.00 0.00 0.00 9 1012.1
20260507023101 26 201 4.8 16.1 0.00 0.00 0.00 8 1012.0
20260507021618 27 207 4.8 16.1 0.00 0.00 0.00 8 1011.9
20260507020106 27 215 6.4 14.5 0.00 0.00 0.00 8 1011.8
20260507014615 27 200 6.4 14.5 0.00 0.00 0.00 8 1011.8
20260507013057 27 198 8.0 16.1 0.00 0.00 0.00 8 1011.8
20260507011557 27 150 9.7 16.1 0.00 0.00 0.00 8 1011.8
20260507010108 28 119 6.4 12.9 0.00 0.00 0.00 7 1011.8
20260507004554 28 221 8.0 14.5 0.00 0.00 0.00 7 1011.7
20260507003054 28 188 8.0 16.1 0.00 0.00 0.00 7 1011.7
20260507001555 28 207 8.0 16.1 0.00 0.00 0.00 7 1011.8
20260507000052 28 192 6.4 14.5 0.00 0.00 0.00 7 1011.8
20260506234552 28 269 4.8 14.5 0.00 0.00 0.00 7 1011.9
20260506233053 28 9 3.2 14.5 0.00 0.00 0.00 7 1012.0
20260506231547 28 269 4.8 11.3 0.00 0.00 0.00 7 1012.1
20260506230045 28 266 8.0 14.5 0.00 0.00 0.00 7 1012.2
20260506224544 28 218 6.4 12.9 0.00 0.00 0.00 7 1012.3
20260506223042 28 179 4.8 16.1 0.00 0.00 0.00 7 1012.5
20260506221543 28 248 3.2 16.1 0.00 0.00 0.00 7 1012.6
20260506220042 28 80 4.8 12.9 0.00 0.00 0.00 8 1012.9
20260506214539 28 229 9.7 17.7 0.00 0.00 0.00 8 1013.0
20260506213038 28 65 1.6 17.7 0.00 0.00 0.00 9 1013.5
20260506211538 27 245 3.2 12.9 0.00 0.00 0.00 10 1013.7
20260506210036 27 126 8.0 16.1 0.00 0.00 0.00 9 1013.9
20260506204537 27 202 3.2 24.1 0.00 0.00 0.00 9 1014.1
20260506203040 27 238 9.7 17.7 0.00 0.00 0.00 9 1014.3
20260506201544 28 49 3.2 11.3 0.00 0.00 0.00 9 1014.4
20260506200032 27 242 9.7 19.3 0.00 0.00 0.00 10 1014.5
20260506194539 27 115 3.2 16.1 0.00 0.00 0.00 9 1014.6
20260506193035 26 78 1.6 12.9 0.00 0.00 0.00 10 1014.7